SAS36B ENGM-ENKR

Flight info

Callsign SAS36B
Flight time 2h 15m
Altitude 39000
Route RIBBE DCT EGAGO DCT TUVLU DCT SIVNU
Aircraft A20N/M-SDE3FGIJ1RWXY/ALB1

Departure

Time 2026-04-16 12:24
Airport Oslo-Gardermoen International Airport (ENGM)

Arrival

Time 2026-04-16 14:40
Airport Kirkenes Airport, Høybuktmoen (ENKR)
Time Latitude Longitude Altitude Speed Heading
2026-04-16 12:08 60.19556 11.09504 688 ft 0 kts 196°
2026-04-16 12:16 60.19564 11.09508 688 ft 2 kts 196°
2026-04-16 12:16 60.19579 11.09516 688 ft 2 kts 196°
2026-04-16 12:16 60.19593 11.09525 688 ft 2 kts 196°
2026-04-16 12:16 60.19603 11.09531 688 ft 0 kts 196°
2026-04-16 12:18 60.19602 11.09529 688 ft 0 kts 213°
2026-04-16 12:18 60.19627 11.09481 688 ft 12 kts 345°
2026-04-16 12:18 60.19691 11.09339 688 ft 15 kts 285°
2026-04-16 12:19 60.19720 11.09126 688 ft 16 kts 286°
2026-04-16 12:19 60.19752 11.08907 688 ft 16 kts 285°
2026-04-16 12:19 60.19765 11.08812 688 ft 0 kts 285°
2026-04-16 12:20 60.19766 11.08808 688 ft 1 kts 285°
2026-04-16 12:20 60.19770 11.08779 688 ft 3 kts 285°
2026-04-16 12:20 60.19793 11.08702 688 ft 8 kts 329°
2026-04-16 12:21 60.19874 11.08728 688 ft 14 kts 15°
2026-04-16 12:21 60.19971 11.08785 688 ft 15 kts 17°
2026-04-16 12:21 60.20075 11.08845 688 ft 15 kts 16°
2026-04-16 12:21 60.20182 11.08911 688 ft 16 kts 17°
2026-04-16 12:22 60.20290 11.08971 688 ft 16 kts 16°
2026-04-16 12:22 60.20400 11.09033 688 ft 16 kts 15°
2026-04-16 12:22 60.20515 11.09099 688 ft 17 kts 15°
2026-04-16 12:22 60.20628 11.09118 688 ft 17 kts 317°
2026-04-16 12:23 60.20669 11.08896 688 ft 17 kts 286°
2026-04-16 12:23 60.20697 11.08682 688 ft 10 kts 264°
2026-04-16 12:23 60.20662 11.08622 688 ft 0 kts 196°
2026-04-16 12:23 60.20528 11.08544 688 ft 59 kts 195°
2026-04-16 12:24 60.19886 11.08176 688 ft 131 kts 195°
2026-04-16 12:24 60.18872 11.07592 1023 ft 159 kts 194°
2026-04-16 12:24 60.17835 11.06946 1742 ft 163 kts 194°
2026-04-16 12:24 60.16768 11.06238 2531 ft 164 kts 199°
2026-04-16 12:25 60.15826 11.04796 3048 ft 185 kts 230°
2026-04-16 12:25 60.15275 11.02342 3529 ft 207 kts 249°
2026-04-16 12:25 60.14867 10.99473 4110 ft 221 kts 250°
2026-04-16 12:25 60.14357 10.96436 4592 ft 243 kts 252°
2026-04-16 12:26 60.14250 10.92922 5126 ft 268 kts 276°
2026-04-16 12:26 60.14603 10.89158 5907 ft 280 kts 279°
2026-04-16 12:26 60.15017 10.85336 6867 ft 285 kts 283°
2026-04-16 12:26 60.15932 10.81867 7819 ft 293 kts 311°
2026-04-16 12:27 60.17599 10.79578 8786 ft 299 kts 340°
2026-04-16 12:27 60.19640 10.78846 9731 ft 303 kts 355°
2026-04-16 12:27 60.21754 10.78675 10565 ft 310 kts
2026-04-16 12:27 60.23814 10.79957 11110 ft 323 kts 33°
2026-04-16 12:28 60.25531 10.82963 11646 ft 336 kts 49°
2026-04-16 12:28 60.27180 10.86489 12126 ft 354 kts 49°
2026-04-16 12:28 60.28896 10.90121 12709 ft 367 kts 48°
2026-04-16 12:28 60.30681 10.93834 13549 ft 371 kts 48°
2026-04-16 12:29 60.32486 10.97553 14414 ft 374 kts 47°
2026-04-16 12:29 60.34284 11.01245 15225 ft 377 kts 47°
2026-04-16 12:29 60.36134 11.05036 16029 ft 381 kts 46°
2026-04-16 12:29 60.37990 11.08841 16820 ft 384 kts 46°
2026-04-16 12:30 60.39865 11.12687 17596 ft 387 kts 46°
2026-04-16 12:30 60.41752 11.16567 18373 ft 390 kts 46°
2026-04-16 12:30 60.43753 11.20255 19077 ft 395 kts 38°
2026-04-16 12:30 60.46069 11.23240 19720 ft 401 kts 28°
2026-04-16 12:31 60.48638 11.25446 20357 ft 406 kts 20°
2026-04-16 12:31 60.51302 11.27338 20977 ft 411 kts 19°
2026-04-16 12:31 60.54000 11.29198 21594 ft 415 kts 19°
2026-04-16 12:31 60.56727 11.31089 22219 ft 419 kts 19°
2026-04-16 12:32 60.59485 11.33026 22838 ft 423 kts 20°
2026-04-16 12:32 60.62264 11.34996 23413 ft 427 kts 20°
2026-04-16 12:32 60.65066 11.36995 23978 ft 430 kts 20°
2026-04-16 12:32 60.67910 11.39031 24547 ft 433 kts 20°
2026-04-16 12:33 60.70727 11.41055 25457 ft 427 kts 20°
2026-04-16 12:33 60.73493 11.42871 26469 ft 418 kts 15°
2026-04-16 12:33 60.76289 11.44078 27470 ft 409 kts
2026-04-16 12:33 60.79089 11.44702 28239 ft 406 kts
2026-04-16 12:34 60.81902 11.45073 28679 ft 411 kts
2026-04-16 12:34 60.84765 11.45396 29107 ft 415 kts
2026-04-16 12:34 60.87644 11.45721 29563 ft 418 kts
2026-04-16 12:34 60.90548 11.46061 30007 ft 421 kts
2026-04-16 12:35 60.93477 11.46417 30453 ft 424 kts
2026-04-16 12:35 60.96389 11.46776 30884 ft 426 kts
2026-04-16 12:35 60.99338 11.47143 31261 ft 429 kts
2026-04-16 12:35 61.02314 11.47514 31633 ft 431 kts
2026-04-16 12:36 61.05302 11.47887 31992 ft 433 kts
2026-04-16 12:36 61.08310 11.48155 32389 ft 434 kts
2026-04-16 12:36 61.11299 11.48215 32856 ft 433 kts
2026-04-16 12:36 61.14319 11.48217 33313 ft 431 kts
2026-04-16 12:37 61.17310 11.48212 33721 ft 430 kts
2026-04-16 12:37 61.20297 11.48212 34060 ft 429 kts
2026-04-16 12:37 61.23255 11.48218 34378 ft 429 kts
2026-04-16 12:37 61.26252 11.48229 34698 ft 428 kts
2026-04-16 12:38 61.29194 11.48265 34993 ft 428 kts
2026-04-16 12:38 61.32136 11.48940 35260 ft 426 kts 12°
2026-04-16 12:38 61.34982 11.50518 35525 ft 424 kts 21°
2026-04-16 12:38 61.37649 11.52925 35766 ft 423 kts 29°
2026-04-16 12:39 61.40128 11.56137 36009 ft 421 kts 38°
2026-04-16 12:39 61.42355 11.60070 36257 ft 419 kts 46°
2026-04-16 12:39 61.44321 11.64527 36498 ft 418 kts 50°
2026-04-16 12:39 61.46222 11.69150 36747 ft 418 kts 51°
2026-04-16 12:40 61.48104 11.73779 36974 ft 418 kts 51°
2026-04-16 12:40 61.49997 11.78424 37195 ft 419 kts 51°
2026-04-16 12:40 61.51880 11.83030 37418 ft 419 kts 51°
2026-04-16 12:40 61.53779 11.87674 37609 ft 421 kts 51°
2026-04-16 12:41 61.55660 11.92278 37767 ft 422 kts 51°
2026-04-16 12:41 61.57570 11.96952 37936 ft 424 kts 51°
2026-04-16 12:41 61.59485 12.01652 38109 ft 425 kts 51°
2026-04-16 12:41 61.61402 12.06367 38272 ft 426 kts 51°
2026-04-16 12:42 61.63328 12.11093 38424 ft 428 kts 50°
2026-04-16 12:42 61.65350 12.15692 38571 ft 429 kts 46°
2026-04-16 12:42 61.67465 12.20001 38727 ft 431 kts 43°
2026-04-16 12:42 61.69736 12.24131 38903 ft 432 kts 40°
2026-04-16 12:43 61.72108 12.27970 39070 ft 433 kts 36°
2026-04-16 12:43 61.74591 12.31605 39155 ft 435 kts 35°
2026-04-16 12:43 61.79598 12.38685 39171 ft 436 kts 34°
2026-04-16 12:44 61.84620 12.45796 39174 ft 437 kts 34°
2026-04-16 12:44 61.89646 12.52966 39176 ft 437 kts 34°
2026-04-16 12:45 61.94627 12.60106 39181 ft 436 kts 34°
2026-04-16 12:45 61.99665 12.67356 39178 ft 437 kts 35°
2026-04-16 12:46 62.04657 12.74573 39182 ft 437 kts 35°
2026-04-16 12:46 62.09670 12.81852 39177 ft 437 kts 35°
2026-04-16 12:47 62.14716 12.89207 39177 ft 437 kts 36°
2026-04-16 12:47 62.19699 12.96506 39174 ft 437 kts 35°
2026-04-16 12:48 62.24681 13.03829 39174 ft 436 kts 35°
2026-04-16 12:48 62.29650 13.11159 39178 ft 436 kts 36°
2026-04-16 12:49 62.34625 13.18531 39184 ft 437 kts 35°
2026-04-16 12:49 62.39603 13.25937 39190 ft 437 kts 35°
2026-04-16 12:50 62.44552 13.33331 39191 ft 436 kts 36°
2026-04-16 12:50 62.49531 13.40802 38942 ft 437 kts 36°
2026-04-16 12:51 62.52004 13.44521 38704 ft 436 kts 36°
2026-04-16 12:51 62.54486 13.48264 38508 ft 436 kts 36°
2026-04-16 12:51 62.56958 13.51999 38316 ft 436 kts 36°
2026-04-16 12:51 62.59429 13.55740 38128 ft 435 kts 36°
2026-04-16 12:52 62.61893 13.59479 37929 ft 434 kts 36°
2026-04-16 12:52 62.64346 13.63210 37735 ft 434 kts 36°
2026-04-16 12:52 62.66841 13.67010 37543 ft 433 kts 37°
2026-04-16 12:52 62.69301 13.70767 37367 ft 433 kts 37°
2026-04-16 12:53 62.71723 13.74473 37240 ft 433 kts 37°
2026-04-16 12:53 62.74203 13.78274 37197 ft 432 kts 37°
2026-04-16 12:53 62.79068 13.85760 37197 ft 433 kts 37°
2026-04-16 12:54 62.83962 13.93320 37195 ft 433 kts 37°
2026-04-16 12:54 62.88847 14.00896 37193 ft 432 kts 37°
2026-04-16 12:55 62.93746 14.08524 37194 ft 432 kts 37°
2026-04-16 12:55 62.98618 14.16143 37197 ft 432 kts 37°
2026-04-16 12:56 63.03486 14.23788 37197 ft 432 kts 37°
2026-04-16 12:56 63.08351 14.31460 37209 ft 432 kts 37°
2026-04-16 12:57 63.13234 14.39190 37223 ft 431 kts 37°
2026-04-16 12:57 63.18071 14.46886 37227 ft 431 kts 37°
2026-04-16 12:58 63.22905 14.54606 37231 ft 431 kts 37°
2026-04-16 12:58 63.27746 14.62369 37234 ft 430 kts 37°
2026-04-16 12:59 63.32580 14.70153 37227 ft 429 kts 38°
2026-04-16 13:00 63.39788 14.81821 37217 ft 429 kts 38°
2026-04-16 13:00 63.44593 14.89645 37226 ft 429 kts 38°
2026-04-16 13:01 63.49368 14.97451 37230 ft 428 kts 38°
2026-04-16 13:01 63.54172 15.05335 37223 ft 428 kts 38°
2026-04-16 13:02 63.58923 15.13167 37221 ft 427 kts 38°
2026-04-16 13:02 63.63699 15.21073 37224 ft 427 kts 38°
2026-04-16 13:03 63.68425 15.28930 37230 ft 426 kts 38°
2026-04-16 13:03 63.73180 15.36869 37236 ft 426 kts 38°
2026-04-16 13:04 63.77889 15.44766 36996 ft 426 kts 38°
2026-04-16 13:04 63.80273 15.48778 37125 ft 427 kts 38°
2026-04-16 13:04 63.82659 15.52801 37181 ft 428 kts 38°
2026-04-16 13:05 63.87381 15.60784 37237 ft 428 kts 38°
2026-04-16 13:05 63.92139 15.68869 37242 ft 428 kts 38°
2026-04-16 13:06 63.96897 15.76984 37250 ft 427 kts 38°
2026-04-16 13:06 64.01610 15.85058 37244 ft 427 kts 39°
2026-04-16 13:07 64.06310 15.93145 37242 ft 426 kts 38°
2026-04-16 13:07 64.11040 16.01317 37243 ft 425 kts 39°
2026-04-16 13:08 64.15713 16.09430 37233 ft 424 kts 39°
2026-04-16 13:08 64.20395 16.17593 37235 ft 424 kts 39°
2026-04-16 13:09 64.25063 16.25766 37238 ft 423 kts 38°
2026-04-16 13:09 64.29720 16.33957 37236 ft 423 kts 39°
2026-04-16 13:10 64.34362 16.42158 37249 ft 423 kts 39°
2026-04-16 13:10 64.38984 16.50355 37243 ft 422 kts 38°
2026-04-16 13:11 64.43634 16.58639 37246 ft 422 kts 38°
2026-04-16 13:11 64.48261 16.66924 37255 ft 421 kts 39°
2026-04-16 13:12 64.52876 16.75221 37263 ft 420 kts 39°
2026-04-16 13:12 64.57469 16.83510 37272 ft 420 kts 39°
2026-04-16 13:13 64.62051 16.91817 37272 ft 420 kts 39°
2026-04-16 13:13 64.66624 17.00146 37274 ft 420 kts 39°
2026-04-16 13:14 64.71204 17.08525 37257 ft 419 kts 39°
2026-04-16 13:14 64.75771 17.16919 37249 ft 418 kts 39°
2026-04-16 13:15 64.80283 17.25246 37246 ft 417 kts 39°
2026-04-16 13:15 64.84818 17.33654 37248 ft 417 kts 39°
2026-04-16 13:16 64.89346 17.42086 37252 ft 417 kts 39°
2026-04-16 13:16 64.93863 17.50530 37263 ft 417 kts 39°
2026-04-16 13:17 64.98362 17.58981 37269 ft 415 kts 38°
2026-04-16 13:17 65.02887 17.67519 37269 ft 415 kts 39°
2026-04-16 13:18 65.07365 17.76008 37270 ft 415 kts 39°
2026-04-16 13:18 65.11864 17.84570 37270 ft 416 kts 39°
2026-04-16 13:19 65.16351 17.93156 37279 ft 415 kts 39°
2026-04-16 13:19 65.20815 18.01726 37274 ft 414 kts 39°
2026-04-16 13:20 65.25274 18.10326 37272 ft 414 kts 39°
2026-04-16 13:20 65.29713 18.18931 37273 ft 414 kts 39°
2026-04-16 13:21 65.34160 18.27586 37272 ft 414 kts 39°
2026-04-16 13:21 65.38600 18.36270 37268 ft 415 kts 38°
2026-04-16 13:22 65.43041 18.44999 37269 ft 415 kts 38°
2026-04-16 13:22 65.47482 18.53758 37262 ft 414 kts 38°
2026-04-16 13:23 65.51910 18.62537 37265 ft 414 kts 38°
2026-04-16 13:23 65.56361 18.71398 37268 ft 414 kts 39°
2026-04-16 13:24 65.60775 18.80229 37271 ft 414 kts 39°
2026-04-16 13:24 65.65195 18.89111 37278 ft 415 kts 39°
2026-04-16 13:25 65.69611 18.98027 37277 ft 415 kts 38°
2026-04-16 13:25 65.74009 19.06944 37284 ft 414 kts 38°
2026-04-16 13:26 65.78397 19.15884 37287 ft 415 kts 38°
2026-04-16 13:26 65.82788 19.24871 37282 ft 415 kts 38°
2026-04-16 13:27 65.87180 19.33900 37277 ft 416 kts 38°
2026-04-16 13:27 65.91580 19.42993 37288 ft 416 kts 38°
2026-04-16 13:28 65.95975 19.52113 37286 ft 415 kts 38°
2026-04-16 13:28 66.00353 19.61244 37286 ft 415 kts 38°
2026-04-16 13:29 66.04739 19.70433 37286 ft 415 kts 39°
2026-04-16 13:29 66.09113 19.79637 37288 ft 416 kts 39°
2026-04-16 13:30 66.13519 19.88954 37286 ft 416 kts 38°
2026-04-16 13:30 66.17864 19.98188 37282 ft 416 kts 38°
2026-04-16 13:31 66.22243 20.07534 37287 ft 416 kts 38°
2026-04-16 13:31 66.26595 20.16866 37289 ft 417 kts 38°
2026-04-16 13:32 66.30955 20.26263 37295 ft 416 kts 38°
2026-04-16 13:32 66.35300 20.35677 37296 ft 416 kts 38°
2026-04-16 13:33 66.39635 20.45109 37301 ft 416 kts 38°
2026-04-16 13:33 66.43988 20.54621 37305 ft 416 kts 38°
2026-04-16 13:34 66.48298 20.64090 37296 ft 416 kts 38°
2026-04-16 13:34 66.52640 20.73677 37294 ft 417 kts 38°
2026-04-16 13:35 66.56953 20.83245 37293 ft 417 kts 38°
2026-04-16 13:35 66.61295 20.92923 37294 ft 417 kts 38°
2026-04-16 13:36 66.65605 21.02572 37297 ft 417 kts 38°
2026-04-16 13:36 66.69895 21.12228 37295 ft 417 kts 38°
2026-04-16 13:37 66.74194 21.21951 37302 ft 417 kts 38°
2026-04-16 13:37 66.78482 21.31696 37293 ft 417 kts 38°
2026-04-16 13:38 66.82759 21.41464 37288 ft 417 kts 38°
2026-04-16 13:38 66.87053 21.51318 37289 ft 417 kts 38°
2026-04-16 13:39 66.91318 21.61152 37292 ft 418 kts 38°
2026-04-16 13:39 66.95615 21.71117 37292 ft 418 kts 38°
2026-04-16 13:40 66.99910 21.81125 37282 ft 418 kts 38°
2026-04-16 13:40 67.04182 21.91126 37287 ft 418 kts 38°
2026-04-16 13:41 67.08433 22.01128 37288 ft 418 kts 38°
2026-04-16 13:41 67.12714 22.11243 37274 ft 419 kts 38°
2026-04-16 13:42 67.16971 22.21363 37274 ft 419 kts 38°
2026-04-16 13:42 67.21227 22.31531 37283 ft 419 kts 38°
2026-04-16 13:43 67.25468 22.41714 37293 ft 419 kts 38°
2026-04-16 13:43 67.29713 22.51958 37291 ft 420 kts 38°
2026-04-16 13:44 67.33948 22.62228 37281 ft 420 kts 38°
2026-04-16 13:44 67.38200 22.72594 37294 ft 420 kts 39°
2026-04-16 13:45 67.42436 22.82966 37292 ft 421 kts 39°
2026-04-16 13:45 67.46663 22.93384 37280 ft 421 kts 38°
2026-04-16 13:46 67.50889 23.03850 37281 ft 421 kts 38°
2026-04-16 13:46 67.55132 23.14413 37283 ft 422 kts 38°
2026-04-16 13:47 67.59360 23.24989 37473 ft 422 kts 38°
2026-04-16 13:47 67.63547 23.35532 37341 ft 421 kts 38°
2026-04-16 13:48 67.67735 23.46131 37301 ft 420 kts 38°
2026-04-16 13:48 67.71865 23.56858 37292 ft 420 kts 39°
2026-04-16 13:49 67.75970 23.67901 37284 ft 420 kts 40°
2026-04-16 13:49 67.80020 23.78849 37289 ft 421 kts 40°
2026-04-16 13:50 67.84109 23.89951 37277 ft 421 kts 40°
2026-04-16 13:50 67.88171 24.01030 37275 ft 422 kts 40°
2026-04-16 13:51 67.92234 24.12169 37259 ft 422 kts 40°
2026-04-16 13:51 67.96286 24.23333 37252 ft 422 kts 40°
2026-04-16 13:52 68.00332 24.34545 37268 ft 422 kts 40°
2026-04-16 13:52 68.04357 24.45761 37261 ft 422 kts 40°
2026-04-16 13:53 68.08411 24.57109 37268 ft 423 kts 40°
2026-04-16 13:53 68.12467 24.68532 37258 ft 424 kts 41°
2026-04-16 13:54 68.16511 24.79980 37238 ft 424 kts 41°
2026-04-16 13:54 68.20519 24.91391 37249 ft 424 kts 41°
2026-04-16 13:55 68.24549 25.02930 37244 ft 424 kts 41°
2026-04-16 13:55 68.28563 25.14482 37252 ft 425 kts 41°
2026-04-16 13:56 68.32582 25.26114 37254 ft 425 kts 41°
2026-04-16 13:56 68.36584 25.37764 37232 ft 426 kts 41°
2026-04-16 13:57 68.40591 25.49492 37249 ft 426 kts 41°
2026-04-16 13:57 68.44591 25.61262 37245 ft 426 kts 41°
2026-04-16 13:58 68.50600 25.79071 37252 ft 427 kts 42°
2026-04-16 13:58 68.54589 25.90977 37234 ft 428 kts 42°
2026-04-16 13:59 68.58588 26.02987 37222 ft 429 kts 42°
2026-04-16 13:59 68.62575 26.15025 37232 ft 429 kts 42°
2026-04-16 14:00 68.66559 26.27116 37226 ft 429 kts 42°
2026-04-16 14:00 68.70525 26.39233 37227 ft 429 kts 42°
2026-04-16 14:01 68.72514 26.45331 36825 ft 428 kts 42°
2026-04-16 14:01 68.74474 26.51374 36327 ft 429 kts 41°
2026-04-16 14:01 68.76457 26.57508 35819 ft 429 kts 41°
2026-04-16 14:01 68.78434 26.63631 35235 ft 429 kts 41°
2026-04-16 14:02 68.80418 26.69792 34662 ft 428 kts 41°
2026-04-16 14:02 68.82379 26.75901 34133 ft 427 kts 41°
2026-04-16 14:02 68.84331 26.81991 33571 ft 427 kts 40°
2026-04-16 14:02 68.86282 26.88097 32985 ft 426 kts 40°
2026-04-16 14:03 68.88221 26.94189 32381 ft 425 kts 40°
2026-04-16 14:03 68.90151 27.00270 31799 ft 422 kts 39°
2026-04-16 14:03 68.92065 27.06325 31323 ft 414 kts 39°
2026-04-16 14:03 68.93919 27.12202 30853 ft 405 kts 38°
2026-04-16 14:04 68.95750 27.18023 30409 ft 396 kts 38°
2026-04-16 14:04 68.97522 27.23669 29991 ft 386 kts 38°
2026-04-16 14:04 68.99270 27.29247 29600 ft 377 kts 38°
2026-04-16 14:04 69.00960 27.34652 29218 ft 369 kts 38°
2026-04-16 14:05 69.02628 27.40002 28843 ft 362 kts 38°
2026-04-16 14:05 69.04243 27.45189 28468 ft 355 kts 37°
2026-04-16 14:05 69.05853 27.50377 28040 ft 350 kts 37°
2026-04-16 14:05 69.07420 27.55435 27629 ft 346 kts 37°
2026-04-16 14:06 69.08970 27.60452 27208 ft 342 kts 37°
2026-04-16 14:06 69.10529 27.65503 26782 ft 339 kts 38°
2026-04-16 14:06 69.12067 27.70494 26351 ft 337 kts 38°
2026-04-16 14:06 69.13567 27.75379 25934 ft 335 kts 38°
2026-04-16 14:07 69.15085 27.80340 25508 ft 333 kts 38°
2026-04-16 14:07 69.16580 27.85236 25087 ft 331 kts 38°
2026-04-16 14:07 69.18066 27.90111 24676 ft 329 kts 38°
2026-04-16 14:07 69.19546 27.94982 24258 ft 328 kts 38°
2026-04-16 14:08 69.20999 27.99767 23835 ft 327 kts 38°
2026-04-16 14:08 69.22479 28.04652 23424 ft 326 kts 39°
2026-04-16 14:08 69.23925 28.09437 22992 ft 326 kts 39°
2026-04-16 14:08 69.25387 28.14277 22552 ft 326 kts 40°
2026-04-16 14:09 69.26849 28.19139 22096 ft 326 kts 40°
2026-04-16 14:09 69.28316 28.24027 21639 ft 326 kts 41°
2026-04-16 14:09 69.29760 28.28857 21204 ft 325 kts 41°
2026-04-16 14:09 69.31213 28.33730 20756 ft 325 kts 42°
2026-04-16 14:10 69.32662 28.38602 20303 ft 324 kts 42°
2026-04-16 14:10 69.34092 28.43424 19868 ft 323 kts 43°
2026-04-16 14:10 69.35526 28.48273 19441 ft 321 kts 43°
2026-04-16 14:10 69.36951 28.53097 19006 ft 319 kts 43°
2026-04-16 14:11 69.38373 28.57929 18579 ft 317 kts 43°
2026-04-16 14:11 69.39781 28.62721 18164 ft 315 kts 44°
2026-04-16 14:11 69.41175 28.67477 17751 ft 313 kts 45°
2026-04-16 14:11 69.42552 28.72181 17345 ft 311 kts 45°
2026-04-16 14:12 69.43928 28.76895 16939 ft 309 kts 45°
2026-04-16 14:12 69.45287 28.81559 16539 ft 307 kts 45°
2026-04-16 14:12 69.46629 28.86174 16145 ft 305 kts 45°
2026-04-16 14:12 69.47976 28.90813 15749 ft 303 kts 45°
2026-04-16 14:13 69.49297 28.95375 15357 ft 301 kts 45°
2026-04-16 14:13 69.50619 28.99947 14970 ft 299 kts 45°
2026-04-16 14:13 69.51929 29.04495 14582 ft 297 kts 45°
2026-04-16 14:13 69.53232 29.09023 14188 ft 295 kts 46°
2026-04-16 14:14 69.54530 29.13547 13801 ft 294 kts 46°
2026-04-16 14:14 69.55820 29.18051 13409 ft 293 kts 46°
2026-04-16 14:14 69.57083 29.22501 13043 ft 292 kts 47°
2026-04-16 14:14 69.58276 29.27174 12604 ft 292 kts 50°
2026-04-16 14:15 69.59428 29.31949 12233 ft 291 kts 50°
2026-04-16 14:15 69.60555 29.36673 11839 ft 291 kts 51°
2026-04-16 14:15 69.61690 29.41443 11421 ft 290 kts 51°
2026-04-16 14:15 69.62822 29.46216 11006 ft 288 kts 51°
2026-04-16 14:16 69.63932 29.50905 10620 ft 286 kts 51°
2026-04-16 14:16 69.65041 29.55597 10354 ft 282 kts 50°
2026-04-16 14:16 69.66116 29.60165 10208 ft 270 kts 50°
2026-04-16 14:16 69.67180 29.64676 10210 ft 275 kts 51°
2026-04-16 14:17 69.68243 29.69192 10203 ft 275 kts 51°
2026-04-16 14:17 69.69291 29.73668 9873 ft 266 kts 51°
2026-04-16 14:17 69.70325 29.78086 9019 ft 269 kts 51°
2026-04-16 14:17 69.71339 29.82421 8525 ft 257 kts 51°
2026-04-16 14:18 69.72452 29.86319 8188 ft 246 kts 39°
2026-04-16 14:18 69.73766 29.89293 7867 ft 241 kts 29°
2026-04-16 14:18 69.75196 29.91800 7526 ft 240 kts 27°
2026-04-16 14:18 69.76611 29.94194 7202 ft 238 kts 27°
2026-04-16 14:19 69.78043 29.96625 6877 ft 238 kts 27°
2026-04-16 14:19 69.79451 29.99032 6558 ft 237 kts 27°
2026-04-16 14:19 69.80866 30.01463 6236 ft 236 kts 27°
2026-04-16 14:19 69.82262 30.03869 5919 ft 236 kts 27°
2026-04-16 14:20 69.83669 30.06298 5599 ft 235 kts 27°
2026-04-16 14:20 69.84968 30.09178 5258 ft 240 kts 46°
2026-04-16 14:20 69.85748 30.13427 4935 ft 248 kts 69°
2026-04-16 14:20 69.86130 30.18287 4716 ft 243 kts 73°
2026-04-16 14:21 69.86455 30.22986 4627 ft 231 kts 72°
2026-04-16 14:21 69.86746 30.27469 4525 ft 222 kts 78°
2026-04-16 14:21 69.86488 30.31817 4398 ft 227 kts 114°
2026-04-16 14:21 69.85387 30.35127 4168 ft 234 kts 150°
2026-04-16 14:22 69.83888 30.36856 3924 ft 234 kts 160°
2026-04-16 14:22 69.82346 30.38358 3666 ft 234 kts 160°
2026-04-16 14:22 69.80802 30.39752 3405 ft 229 kts 171°
2026-04-16 14:22 69.79349 30.39136 3301 ft 205 kts 218°
2026-04-16 14:23 69.78467 30.36146 3276 ft 190 kts 255°
2026-04-16 14:23 69.78059 30.32574 3254 ft 189 kts 260°
2026-04-16 14:23 69.77673 30.28984 3163 ft 188 kts 259°
2026-04-16 14:23 69.77255 30.25380 3047 ft 188 kts 258°
2026-04-16 14:24 69.76817 30.21817 2774 ft 187 kts 256°
2026-04-16 14:24 69.76392 30.18481 2544 ft 174 kts 259°
2026-04-16 14:24 69.76045 30.15141 2105 ft 173 kts 262°
2026-04-16 14:24 69.75671 30.11840 1696 ft 177 kts 256°
2026-04-16 14:25 69.75107 30.08837 1571 ft 161 kts 244°
2026-04-16 14:25 69.74584 30.06200 1681 ft 160 kts 253°
2026-04-16 14:25 69.74136 30.02918 2143 ft 190 kts 258°
2026-04-16 14:25 69.73714 29.99228 2671 ft 202 kts 259°
2026-04-16 14:26 69.73277 29.95347 2952 ft 205 kts 258°
2026-04-16 14:26 69.72809 29.91439 2973 ft 206 kts 257°
2026-04-16 14:26 69.72323 29.87590 2978 ft 206 kts 257°
2026-04-16 14:26 69.71819 29.83715 2979 ft 206 kts 256°
2026-04-16 14:27 69.71317 29.79908 2921 ft 206 kts 256°
2026-04-16 14:27 69.70802 29.76050 2941 ft 205 kts 256°
2026-04-16 14:27 69.70295 29.72255 2967 ft 205 kts 256°
2026-04-16 14:27 69.69778 29.68404 2973 ft 205 kts 256°
2026-04-16 14:28 69.69271 29.64626 2978 ft 205 kts 256°
2026-04-16 14:28 69.68762 29.60792 2977 ft 204 kts 259°
2026-04-16 14:28 69.68666 29.56905 2977 ft 190 kts 293°
2026-04-16 14:28 69.69310 29.53808 2971 ft 180 kts 322°
2026-04-16 14:29 69.70393 29.52137 2977 ft 177 kts 348°
2026-04-16 14:29 69.71632 29.52243 2982 ft 181 kts 15°
2026-04-16 14:29 69.72707 29.54171 2979 ft 190 kts 43°
2026-04-16 14:29 69.73425 29.57426 2998 ft 199 kts 54°
2026-04-16 14:30 69.74113 29.61057 3003 ft 214 kts 55°
2026-04-16 14:30 69.74826 29.64896 2994 ft 218 kts 56°
2026-04-16 14:30 69.75533 29.68743 2989 ft 219 kts 56°
2026-04-16 14:30 69.76248 29.72646 2987 ft 218 kts 56°
2026-04-16 14:31 69.76954 29.76493 2987 ft 219 kts 56°
2026-04-16 14:31 69.77670 29.80404 2988 ft 220 kts 56°
2026-04-16 14:31 69.78384 29.84311 2987 ft 220 kts 56°
2026-04-16 14:31 69.79089 29.88179 2984 ft 219 kts 56°
2026-04-16 14:32 69.79802 29.92096 2986 ft 219 kts 56°
2026-04-16 14:32 69.80510 29.95986 2985 ft 218 kts 56°
2026-04-16 14:32 69.81187 29.99717 2983 ft 219 kts 56°
2026-04-16 14:32 69.81895 30.03597 2972 ft 219 kts 56°
2026-04-16 14:33 69.82592 30.07453 2913 ft 211 kts 56°
2026-04-16 14:33 69.83237 30.11056 2888 ft 197 kts 56°
2026-04-16 14:33 69.83865 30.14551 2885 ft 196 kts 56°
2026-04-16 14:33 69.84496 30.18045 2881 ft 196 kts 56°
2026-04-16 14:34 69.85126 30.21534 2887 ft 196 kts 56°
2026-04-16 14:34 69.85754 30.25032 2882 ft 196 kts 56°
2026-04-16 14:34 69.86201 30.28807 2868 ft 206 kts 82°
2026-04-16 14:34 69.85853 30.32907 2874 ft 219 kts 117°
2026-04-16 14:35 69.84724 30.35891 2877 ft 225 kts 153°
2026-04-16 14:35 69.83263 30.37514 2883 ft 226 kts 160°
2026-04-16 14:35 69.81776 30.38959 2881 ft 226 kts 160°
2026-04-16 14:35 69.80240 30.39658 2873 ft 224 kts 191°
2026-04-16 14:36 69.78861 30.37951 2873 ft 215 kts 227°
2026-04-16 14:36 69.78083 30.34462 2871 ft 204 kts 258°
2026-04-16 14:36 69.77726 30.30562 2892 ft 203 kts 263°
2026-04-16 14:36 69.77356 30.26595 2888 ft 203 kts 259°
2026-04-16 14:37 69.76969 30.22722 2854 ft 204 kts 259°
2026-04-16 14:37 69.76521 30.18831 2674 ft 204 kts 256°
2026-04-16 14:37 69.76019 30.15071 2335 ft 198 kts 255°
2026-04-16 14:37 69.75531 30.11542 2004 ft 184 kts 255°
2026-04-16 14:38 69.75087 30.08274 1725 ft 165 kts 256°
2026-04-16 14:38 69.74697 30.05349 1478 ft 149 kts 256°
2026-04-16 14:38 69.74343 30.02674 1245 ft 134 kts 255°
2026-04-16 14:38 69.74030 30.00310 1041 ft 121 kts 255°
2026-04-16 14:39 69.73732 29.98050 867 ft 120 kts 255°
2026-04-16 14:39 69.73434 29.95799 698 ft 122 kts 255°
2026-04-16 14:39 69.73138 29.93501 503 ft 120 kts 252°
2026-04-16 14:39 69.72838 29.91283 334 ft 120 kts 253°
2026-04-16 14:40 69.72563 29.89154 289 ft 98 kts 249°
2026-04-16 14:40 69.72385 29.87839 284 ft 44 kts 249°
2026-04-16 14:40 69.72320 29.87334 286 ft 14 kts 248°
2026-04-16 14:40 69.72282 29.87038 287 ft 17 kts 250°
2026-04-16 14:41 69.72249 29.86745 288 ft 7 kts 238°
2026-04-16 14:41 69.72240 29.86820 288 ft 11 kts 66°
2026-04-16 14:41 69.72286 29.87111 287 ft 17 kts 65°
2026-04-16 14:41 69.72332 29.87448 286 ft 19 kts 69°
2026-04-16 14:42 69.72383 29.87814 284 ft 14 kts 72°
2026-04-16 14:42 69.72336 29.88022 285 ft 11 kts 159°
2026-04-16 14:42 69.72259 29.88123 286 ft 12 kts 133°
2026-04-16 14:42 69.72243 29.88322 286 ft 9 kts 123°
2026-04-16 14:43 69.72209 29.88381 287 ft 2 kts 158°
2026-04-16 14:43 69.72205 29.88387 287 ft 0 kts 157°